CW0988 Weather Reports


time (UTC)temp
C
wind
direction
speed
KPH
gust
KPH
rain 1hr
cm
rain 24hr
cm
rain mn
cm
humidity
%
barometer
mb
20260507095503 13 223 4.8 6.4 0.00 0.00 0.00 62 1014.2
20260507095007 13 213 3.2 6.4 0.00 0.00 0.00 62 1014.3
20260507094523 13 219 4.8 8.0 0.00 0.00 0.00 64 1014.3
20260507094007 13 217 4.8 8.0 0.00 0.00 0.00 64 1014.2
20260507093503 12 225 4.8 9.7 0.00 0.00 0.00 64 1014.2
20260507093028 12 227 4.8 9.7 0.00 0.00 0.00 64 1014.3
20260507092509 12 207 9.7 11.3 0.00 0.00 0.00 64 1014.4
20260507092009 12 204 8.0 11.3 0.00 0.00 0.00 64 1014.4
20260507091537 12 205 9.7 11.3 0.00 0.00 0.00 65 1014.4
20260507091007 12 199 8.0 14.5 0.00 0.00 0.00 64 1014.4
20260507090510 12 192 9.7 14.5 0.00 0.00 0.00 63 1014.4
20260507090034 12 198 11.3 12.9 0.00 0.00 0.00 63 1014.4
20260507085503 13 219 6.4 9.7 0.00 0.00 0.00 1014.4
20260507085007 13 218 6.4 9.7 0.00 0.00 0.00 1014.3
20260507084529 15 183 4.8 6.4 0.00 0.00 0.00 55 1014.3
20260507084003 15 169 0.0 9.7 0.00 0.00 0.00 55 1014.3
20260507083509 16 172 4.8 9.7 0.00 0.00 0.00 54 1014.3
20260507083017 16 249 0.0 4.8 0.00 0.00 0.00 52 1014.3
20260507082508 16 298 0.0 6.4 0.00 0.00 0.00 52 1014.3
20260507082007 16 294 3.2 11.3 0.00 0.00 0.00 50 1014.2
20260507081503 16 299 6.4 11.3 0.00 0.00 0.00 51 1014.1
20260507081004 16 263 4.8 9.7 0.00 0.00 0.00 51 1014.2
20260507080502 16 270 3.2 11.3 0.00 0.00 0.00 51 1014.3
20260507080013 16 207 8.0 11.3 0.00 0.00 0.00 52 1014.4
20260507075506 16 197 8.0 11.3 0.00 0.00 0.00 52 1014.5
20260507075010 16 201 4.8 6.4 0.00 0.00 0.00 52 1014.3
20260507074524 16 196 3.2 6.4 0.00 0.00 0.00 51 1014.2
20260507074006 16 157 3.2 6.4 0.00 0.00 0.00 51 1014.2
20260507073511 16 171 1.6 3.2 0.00 0.00 0.00 51 1014.2
20260507073009 16 165 1.6 6.4 0.00 0.00 0.00 50 1014.2
20260507072506 16 152 0.0 8.0 0.00 0.00 0.00 50 1014.0
20260507072006 16 184 3.2 8.0 0.00 0.00 0.00 49 1014.0
20260507071524 16 225 4.8 11.3 0.00 0.00 0.00 49 1014.0
20260507071008 16 194 3.2 11.3 0.00 0.00 0.00 50 1013.9
20260507070510 16 259 3.2 6.4 0.00 0.00 0.00 50 1013.7
20260507070025 17 274 3.2 6.4 0.00 0.00 0.00 50 1013.6
20260507065508 17 48 4.8 6.4 0.00 0.00 0.00 47 1013.7
20260507065004 18 29 1.6 9.7 0.00 0.00 0.00 46 1013.8
20260507064511 18 280 0.0 12.9 0.00 0.00 0.00 44 1013.6
20260507064004 18 288 6.4 16.1 0.00 0.00 0.00 44 1013.5
20260507063508 18 294 9.7 19.3 0.00 0.00 0.00 43 1013.3
20260507063020 19 280 11.3 19.3 0.00 0.00 0.00 41 1013.2
20260507062509 20 281 9.7 19.3 0.00 0.00 0.00 41 1013.1
20260507062009 20 277 11.3 22.5 0.00 0.00 0.00 39 1013.1
20260507061526 20 286 14.5 24.1 0.00 0.00 0.00 40 1013.3
20260507061004 20 279 17.7 22.5 0.00 0.00 0.00 38 1013.4
20260507060505 20 297 9.7 14.5 0.00 0.00 0.00 37 1013.6
20260507060022 20 284 3.2 8.0 0.00 0.00 0.00 36 1013.6
20260507055509 20 263 3.2 12.9 0.00 0.00 0.00 35 1013.5
20260507055008 20 276 4.8 16.1 0.00 0.00 0.00 35 1013.5
20260507054528 20 292 4.8 16.1 0.00 0.00 0.00 35 1013.5
20260507054010 20 306 8.0 17.7 0.00 0.00 0.00 35 1013.4
20260507053508 20 300 9.7 17.7 0.00 0.00 0.00 35 1013.3
20260507053012 21 305 12.9 16.1 0.00 0.00 0.00 34 1013.4
20260507052507 21 313 11.3 12.9 0.00 0.00 0.00 33 1013.5
20260507052004 21 300 6.4 12.9 0.00 0.00 0.00 33 1013.5
20260507051522 21 298 9.7 14.5 0.00 0.00 0.00 33 1013.6
20260507051007 21 292 9.7 14.5 0.00 0.00 0.00 33 1013.4
20260507050507 21 296 9.7 12.9 0.00 0.00 0.00 33 1013.4
20260507050039 21 286 4.8 16.1 0.00 0.00 0.00 34 1013.3
20260507045507 21 298 9.7 16.1 0.00 0.00 0.00 34 1013.2
20260507045003 21 298 12.9 16.1 0.00 0.00 0.00 34 1013.2
20260507044517 21 299 11.3 14.5 0.00 0.00 0.00 33 1013.2
20260507044009 21 302 9.7 14.5 0.00 0.00 0.00 32 1013.2
20260507043506 21 305 4.8 6.4 0.00 0.00 0.00 32 1013.2
20260507043022 22 291 1.6 4.8 0.00 0.00 0.00 32 1013.2
20260507042507 22 256 0.0 4.8 0.00 0.00 0.00 31 1013.1
20260507042010 22 259 0.0 8.0 0.00 0.00 0.00 31 1013.1
20260507041529 22 273 3.2 8.0 0.00 0.00 0.00 31 1013.0
20260507041010 22 288 0.0 3.2 0.00 0.00 0.00 31 1012.9
20260507040504 22 319 0.0 6.4 0.00 0.00 0.00 31 1012.9
20260507040021 22 319 0.0 6.4 0.00 0.00 0.00 31 1012.8
20260507035507 22 312 3.2 11.3 0.00 0.00 0.00 31 1012.7
20260507035008 22 275 3.2 11.3 0.00 0.00 0.00 31 1012.7
20260507034526 22 295 4.8 16.1 0.00 0.00 0.00 31 1012.7
20260507034008 22 275 8.0 16.1 0.00 0.00 0.00 31 1012.7
20260507033509 22 269 6.4 12.9 0.00 0.00 0.00 33 1012.7
20260507033028 23 280 4.8 11.3 0.00 0.00 0.00 31 1012.7
20260507032506 23 298 3.2 14.5 0.00 0.00 0.00 30 1012.7
20260507032008 23 300 8.0 14.5 0.00 0.00 0.00 30 1012.7
20260507031522 23 256 6.4 17.7 0.00 0.00 0.00 31 1012.7
20260507031009 23 280 8.0 17.7 0.00 0.00 0.00 30 1012.7
20260507030512 23 273 4.8 12.9 0.00 0.00 0.00 32 1012.7
20260507030007 23 292 4.8 12.9 0.00 0.00 0.00 31 1012.7
20260507025504 23 283 3.2 12.9 0.00 0.00 0.00 30 1012.6
20260507025004 23 278 3.2 11.3 0.00 0.00 0.00 31 1012.5
20260507024517 23 305 4.8 11.3 0.00 0.00 0.00 29 1012.4
20260507024008 23 302 3.2 8.0 0.00 0.00 0.00 29 1012.3
20260507023508 23 284 0.0 4.8 0.00 0.00 0.00 29 1012.3
20260507023025 23 304 1.6 6.4 0.00 0.00 0.00 29 1012.3
20260507022508 24 298 3.2 9.7 0.00 0.00 0.00 28 1012.2
20260507022005 24 289 4.8 11.3 0.00 0.00 0.00 29 1012.2
20260507021509 24 284 4.8 11.3 0.00 0.00 0.00 29 1012.2
20260507021003 24 280 1.6 11.3 0.00 0.00 0.00 29 1012.2
20260507020506 25 285 4.8 16.1 0.00 0.00 0.00 29 1012.2
20260507020021 25 273 8.0 16.1 0.00 0.00 0.00 28 1012.2
20260507015507 25 309 4.8 22.5 0.00 0.00 0.00 29 1012.2
20260507015012 25 312 12.9 25.7 0.00 0.00 0.00 28 1012.2
20260507014529 25 302 17.7 25.7 0.00 0.00 0.00 27 1012.2
20260507014008 25 299 16.1 29.0 0.00 0.00 0.00 27 1012.2
20260507013504 25 315 14.5 29.0 0.00 0.00 0.00 27 1012.2
20260507013016 26 297 14.5 24.1 0.00 0.00 0.00 26 1012.2
20260507012506 26 296 14.5 29.0 0.00 0.00 0.00 26 1012.2
20260507012012 26 304 17.7 29.0 0.00 0.00 0.00 26 1012.2
20260507011526 26 301 22.5 30.6 0.00 0.00 0.00 25 1012.2
20260507011010 26 306 20.9 30.6 0.00 0.00 0.00 26 1012.1
20260507010513 26 298 19.3 27.4 0.00 0.00 0.00 26 1012.1
20260507010040 26 311 19.3 27.4 0.00 0.00 0.00 27 1012.1
20260507005506 26 267 12.9 30.6 0.00 0.00 0.00 26 1012.0
20260507005007 27 293 19.3 32.2 0.00 0.00 0.00 26 1012.0
20260507004521 27 291 20.9 37.0 0.00 0.00 0.00 25 1011.9
20260507004008 27 314 25.7 37.0 0.00 0.00 0.00 25 1011.8
20260507003511 27 279 20.9 33.8 0.00 0.00 0.00 27 1011.7
20260507003028 27 285 20.9 38.6 0.00 0.00 0.00 26 1011.6
20260507002508 27 323 27.4 38.6 0.00 0.00 0.00 27 1011.4
20260507002009 27 312 20.9 37.0 0.00 0.00 0.00 27 1011.3
20260507001515 28 311 20.9 41.8 0.00 0.00 0.00 26 1011.2
20260507001004 28 299 27.4 41.8 0.00 0.00 0.00 25 1011.1
20260507000505 28 298 29.0 41.8 0.00 0.00 0.00 25 1011.0
20260507000031 28 303 25.7 38.6 0.00 0.00 0.00 23 1010.9
20260506235509 28 300 29.0 37.0 0.00 0.00 0.00 23 1010.7
20260506235007 29 282 22.5 35.4 0.00 0.00 0.00 23 1010.6
20260506234528 29 298 25.7 40.2 0.00 0.00 0.00 24 1010.5
20260506234010 29 296 29.0 40.2 0.00 0.00 0.00 24 1010.6
20260506233504 29 313 29.0 38.6 0.00 0.00 0.00 25 1010.5
20260506233020 30 311 30.6 38.6 0.00 0.00 0.00 24 1010.5
20260506232508 30 328 27.4 33.8 0.00 0.00 0.00 25 1010.4
20260506232010 30 330 20.9 30.6 0.00 0.00 0.00 27 1010.5
20260506231525 30 299 8.0 19.3 0.00 0.00 0.00 27 1010.5
20260506231009 30 314 11.3 19.3 0.00 0.00 0.00 26 1010.6
20260506230510 30 267 9.7 19.3 0.00 0.00 0.00 24 1010.6
20260506230029 30 281 8.0 12.9 0.00 0.00 0.00 26 1010.6
20260506225504 30 352 4.8 11.3 0.00 0.00 0.00 27 1010.7
20260506225008 30 14 6.4 12.9 0.00 0.00 0.00 26 1010.9
20260506224522 30 327 6.4 12.9 0.00 0.00 0.00 25 1011.0
20260506224008 30 311 1.6 12.9 0.00 0.00 0.00 25 1011.0
20260506223508 30 300 8.0 20.9 0.00 0.00 0.00 26 1011.1
20260506223025 30 311 8.0 20.9 0.00 0.00 0.00 25 1011.2
20260506222507 29 334 9.7 17.7 0.00 0.00 0.00 27 1011.3
20260506222009 29 279 6.4 17.7 0.00 0.00 0.00 25 1011.3
20260506221515 29 360 4.8 12.9 0.00 0.00 0.00 25 1011.4
20260506221008 29 307 6.4 12.9 0.00 0.00 0.00 26 1011.4
20260506220509 29 300 3.2 9.7 0.00 0.00 0.00 27 1011.4
20260506220025 28 305 6.4 16.1 0.00 0.00 0.00 25 1011.4
20260506215509 28 315 11.3 20.9 0.00 0.00 0.00 25 1011.4
20260506215008 29 10 6.4 20.9 0.00 0.00 0.00 28 1011.4
20260506214529 29 339 11.3 17.7 0.00 0.00 0.00 25 1011.5
20260506214012 29 174 1.6 6.4 0.00 0.00 0.00 25 1011.5
20260506213509 28 65 1.6 12.9 0.00 0.00 0.00 24 1011.5
20260506213022 28 21 8.0 16.1 0.00 0.00 0.00 26 1011.5
20260506212506 28 341 4.8 22.5 0.00 0.00 0.00 27 1011.6
20260506212004 29 324 16.1 22.5 0.00 0.00 0.00 25 1011.6
20260506211507 29 311 12.9 22.5 0.00 0.00 0.00 30 1011.5
20260506211004 29 352 8.0 17.7 0.00 0.00 0.00 25 1011.7
20260506210504 29 12 6.4 17.7 0.00 0.00 0.00 27 1011.8
20260506210030 29 36 6.4 20.9 0.00 0.00 0.00 25 1011.7
20260506205507 29 334 6.4 25.7 0.00 0.00 0.00 26 1011.7
20260506205005 29 346 16.1 29.0 0.00 0.00 0.00 24 1011.7
20260506204528 29 352 19.3 29.0 0.00 0.00 0.00 26 1011.7
20260506204004 29 315 17.7 25.7 0.00 0.00 0.00 26 1011.6
20260506203504 29 313 6.4 19.3 0.00 0.00 0.00 23 1011.7
20260506203007 29 290 4.8 11.3 0.00 0.00 0.00 28 1011.6
20260506202503 29 111 1.6 12.9 0.00 0.00 0.00 26 1011.7
20260506202009 28 38 3.2 24.1 0.00 0.00 0.00 24 1011.6
20260506201527 28 261 14.5 24.1 0.00 0.00 0.00 30 1011.6
20260506201009 28 248 6.4 20.9 0.00 0.00 0.00 31 1011.5
20260506200508 28 169 14.5 24.1 0.00 0.00 0.00 29 1011.5
20260506200031 28 140 12.9 29.0 0.00 0.00 0.00 33 1011.6
20260506195507 28 126 19.3 29.0 0.00 0.00 0.00 31 1011.7
20260506195004 28 123 16.1 29.0 0.00 0.00 0.00 31 1011.8
20260506194512 28 151 16.1 29.0 0.00 0.00 0.00 31 1011.9
20260506194008 27 152 12.9 27.4 0.00 0.00 0.00 31 1011.9
20260506193506 27 150 14.5 27.4 0.00 0.00 0.00 34 1012.0
20260506193038 27 162 16.1 25.7 0.00 0.00 0.00 33 1012.0
20260506192512 27 158 14.5 27.4 0.00 0.00 0.00 35 1012.2
20260506192008 27 117 17.7 27.4 0.00 0.00 0.00 33 1012.3
20260506191510 27 107 16.1 29.0 0.00 0.00 0.00 34 1012.4
20260506191004 26 141 20.9 29.0 0.00 0.00 0.00 37 1012.4
20260506190506 26 123 14.5 27.4 0.00 0.00 0.00 36 1012.4
20260506190020 26 112 12.9 24.1 0.00 0.00 0.00 37 1012.5
20260506185508 26 125 16.1 24.1 0.00 0.00 0.00 36 1012.6
20260506185008 26 163 11.3 20.9 0.00 0.00 0.00 37 1012.5
20260506184531 26 134 17.7 24.1 0.00 0.00 0.00 38 1012.5
20260506184009 26 128 16.1 24.1 0.00 0.00 0.00 41 1012.6
20260506183504 26 157 11.3 19.3 0.00 0.00 0.00 37 1012.7
20260506183010 25 161 11.3 20.9 0.00 0.00 0.00 38 1012.8
20260506182506 25 136 14.5 20.9 0.00 0.00 0.00 40 1012.8
20260506182011 25 137 11.3 20.9 0.00 0.00 0.00 42 1012.9
20260506181535 25 99 6.4 19.3 0.00 0.00 0.00 41 1013.0
20260506181007 25 112 11.3 19.3 0.00 0.00 0.00 44 1013.0
20260506180508 25 126 12.9 17.7 0.00 0.00 0.00 41 1013.0
20260506180028 25 146 11.3 19.3 0.00 0.00 0.00 40 1013.0
20260506175507 25 136 9.7 20.9 0.00 0.00 0.00 41 1013.1
20260506175004 24 143 8.0 20.9 0.00 0.00 0.00 38 1013.1
20260506174516 25 123 14.5 19.3 0.00 0.00 0.00 42 1013.1
20260506174002 24 106 8.0 17.7 0.00 0.00 0.00 44 1013.1
20260506173503 24 101 11.3 19.3 0.00 0.00 0.00 39 1013.2
20260506173004 24 125 17.7 19.3 0.00 0.00 0.00 43 1013.2
20260506172504 24 102 6.4 16.1 0.00 0.00 0.00 45 1013.2
20260506172005 24 185 6.4 12.9 0.00 0.00 0.00 43 1013.2
20260506171516 23 155 6.4 12.9 0.00 0.00 0.00 43 1013.2
20260506171003 23 91 8.0 11.3 0.00 0.00 0.00 44 1013.3
20260506170508 24 107 6.4 9.7 0.00 0.00 0.00 42 1013.4
20260506170006 24 63 3.2 4.8 0.00 0.00 0.00 42 1013.5
20260506165506 24 63 1.6 4.8 0.00 0.00 0.00 41 1013.5
20260506165003 24 70 0.0 3.2 0.00 0.00 0.00 39 1013.6
20260506164507 23 70 1.6 3.2 0.00 0.00 0.00 38 1013.7
20260506164002 23 75 1.6 3.2 0.00 0.00 0.00 40 1013.6
20260506163504 23 98 0.0 3.2 0.00 0.00 0.00 38 1013.7
20260506163020 23 94 1.6 3.2 0.00 0.00 0.00 44 1013.7
20260506162509 22 337 0.0 4.8 0.00 0.00 0.00 40 1013.8
20260506162002 22 352 3.2 8.0 0.00 0.00 0.00 41 1013.8
20260506161503 22 323 3.2 8.0 0.00 0.00 0.00 40 1013.8
20260506161006 22 20 1.6 4.8 0.00 0.00 0.00 46 1013.8
20260506160503 22 340 1.6 4.8 0.00 0.00 0.00 47 1013.9
20260506160010 22 306 0.0 3.2 0.00 0.00 0.00 44 1013.8
20260506155504 22 333 0.0 6.4 0.00 0.00 0.00 46 1013.9
20260506155006 21 331 1.6 6.4 0.00 0.00 0.00 43 1013.8
20260506154521 21 325 3.2 6.4 0.00 0.00 0.00 44 1013.8
20260506154003 21 334 6.4 6.4 0.00 0.00 0.00 46 1013.8
20260506153504 21 335 3.2 4.8 0.00 0.00 0.00 45 1013.8
20260506153004 21 262 1.6 4.8 0.00 0.00 0.00 49 1013.8
20260506152506 20 65 0.0 3.2 0.00 0.00 0.00 51 1013.7
20260506152006 20 65 0.0 3.2 0.00 0.00 0.00 55 1013.7
20260506151512 19 65 0.0 1.6 0.00 0.00 0.00 62 1013.8
20260506151008 18 106 1.6 3.2 0.00 0.00 0.00 63 1013.8
20260506150506 18 107 0.0 3.2 0.00 0.00 0.00 68 1013.9
20260506150013 17 107 0.0 3.2 0.00 0.00 0.00 68 1013.8
20260506145503 17 106 0.0 3.2 0.00 0.00 0.00 66 1013.9
20260506145002 16 106 0.0 3.2 0.00 0.00 0.00 67 1013.9
20260506144508 16 107 0.0 3.2 0.00 0.00 0.00 68 1013.9
20260506144004 15 106 0.0 3.2 0.00 0.00 0.00 68 1013.9
20260506143504 15 106 0.0 4.8 0.00 0.00 0.00 71 1013.9
20260506143024 15 115 3.2 4.8 0.00 0.00 0.00 68 1013.8
20260506142507 15 101 3.2 4.8 0.00 0.00 0.00 69 1013.8
20260506142008 15 69 0.0 0.0 0.00 0.00 0.00 69 1013.8
20260506141504 14 69 0.0 0.0 0.00 0.00 0.00 69 1013.8
20260506141003 13 69 0.0 0.0 0.00 0.00 0.00 70 1013.7
20260506140503 13 69 0.0 0.0 0.00 0.00 0.00 70 1013.7
20260506140018 13 69 0.0 0.0 0.00 0.00 0.00 1013.6
20260506135507 12 69 0.0 0.0 0.00 0.00 0.00 72 1013.6
20260506135006 12 69 0.0 0.0 0.00 0.00 0.00 72 1013.6
20260506134523 12 59 0.0 0.0 0.00 0.00 0.00 72 1013.5
20260506134012 12 59 0.0 0.0 0.00 0.00 0.00 73 1013.4
20260506133506 11 59 0.0 0.0 0.00 0.00 0.00 73 1013.3
20260506133006 11 97 0.0 3.2 0.00 0.00 0.00 74 1013.2
20260506132503 11 97 0.0 3.2 0.00 0.00 0.00 72 1013.1
20260506132005 12 118 1.6 3.2 0.00 0.00 0.00 71 1013.1
20260506131515 12 360 0.0 3.2 0.00 0.00 0.00 70 1013.1
20260506131009 12 360 0.0 6.4 0.00 0.00 0.00 69 1013.0
20260506130509 12 360 1.6 12.9 0.00 0.00 0.00 67 1012.9
20260506130024 13 79 1.6 12.9 0.00 0.00 0.00 66 1012.9
20260506125503 12 225 6.4 11.3 0.00 0.00 0.00 67 1012.7
20260506125006 12 201 8.0 11.3 0.00 0.00 0.00 67 1012.7
20260506124510 12 198 8.0 12.9 0.00 0.00 0.00 67 1012.7
20260506124006 12 196 9.7 12.9 0.00 0.00 0.00 66 1012.7
20260506123508 12 202 11.3 12.9 0.00 0.00 0.00 66 1012.7
20260506123020 12 200 9.7 12.9 0.00 0.00 0.00 67 1012.6
20260506122505 12 205 8.0 11.3 0.00 0.00 0.00 65 1012.6
20260506122009 12 219 6.4 12.9 0.00 0.00 0.00 66 1012.7
20260506121508 12 213 9.7 12.9 0.00 0.00 0.00 67 1012.7
20260506121004 12 199 9.7 11.3 0.00 0.00 0.00 69 1012.6
20260506120508 12 200 4.8 11.3 0.00 0.00 0.00 70 1012.6
20260506120018 12 209 4.8 11.3 0.00 0.00 0.00 68 1012.6
20260506115504 13 196 9.7 11.3 0.00 0.00 0.00 67 1012.6
20260506115007 13 234 0.0 3.2 0.00 0.00 0.00 64 1012.5
20260506114528 13 234 0.0 3.2 0.00 0.00 0.00 65 1012.4
20260506114009 13 268 0.0 3.2 0.00 0.00 0.00 65 1012.4
20260506113508 13 268 1.6 3.2 0.00 0.00 0.00 65 1012.4
20260506113011 13 269 1.6 3.2 0.00 0.00 0.00 66 1012.6
20260506112505 12 155 1.6 3.2 0.00 0.00 0.00 67 1012.5
20260506112006 12 163 1.6 4.8 0.00 0.00 0.00 66 1012.5
20260506111520 13 216 1.6 4.8 0.00 0.00 0.00 66 1012.4
20260506111005 13 216 3.2 3.2 0.00 0.00 0.00 65 1012.4
20260506110511 13 216 1.6 3.2 0.00 0.00 0.00 65 1012.3
20260506110028 13 229 3.2 6.4 0.00 0.00 0.00 65 1012.4
20260506105508 13 229 3.2 8.0 0.00 0.00 0.00 65 1012.3
20260506105003 12 211 4.8 8.0 0.00 0.00 0.00 66 1012.2
20260506104533 13 190 6.4 8.0 0.00 0.00 0.00 65 1012.1
20260506104006 13 189 4.8 8.0 0.00 0.00 0.00 63 1012.0
20260506103507 13 106 1.6 3.2 0.00 0.00 0.00 62 1012.0
20260506103025 13 106 1.6 3.2 0.00 0.00 0.00 63 1012.0
20260506102507 13 106 0.0 1.6 0.00 0.00 0.00 65 1011.9
20260506102007 13 106 0.0 3.2 0.00 0.00 0.00 66 1011.9
20260506101526 13 106 0.0 3.2 0.00 0.00 0.00 68 1012.0
20260506101004 13 106 3.2 3.2 0.00 0.00 0.00 67 1012.0
20260506100506 14 48 1.6 3.2 0.00 0.00 0.00 66 1011.9
20260506100019 14 316 0.0 0.0 0.00 0.00 0.00 65 1011.9